| time (UTC) | temp F | wind direction | speed knots | gust knots | rain 1hr in | rain 24hr in | rain mn in | humidity % | barometer mb |
| 20260506175929 | 51 | 235 | 1.7 | 4.3 | 0.00 | 0.02 | 0.02 | 91 | 1021.2 |
| 20260506175426 | 51 | 257 | 1.7 | 7.0 | 0.00 | 0.02 | 0.02 | 91 | 1021.1 |
| 20260506174922 | 51 | 278 | 3.5 | 6.1 | 0.00 | 0.02 | 0.02 | 92 | 1021.3 |
| 20260506174421 | 51 | 227 | 3.5 | 4.3 | 0.00 | 0.02 | 0.02 | 92 | 1021.1 |
| 20260506173917 | 51 | 212 | 1.7 | 2.6 | 0.00 | 0.02 | 0.02 | 93 | 1021.0 |
| 20260506173414 | 51 | 72 | 2.6 | 5.2 | 0.00 | 0.02 | 0.02 | 93 | 1020.9 |
| 20260506172911 | 51 | 248 | 6.1 | 6.1 | 0.00 | 0.02 | 0.02 | 93 | 1020.9 |
| 20260506172407 | 51 | 214 | 4.3 | 5.2 | 0.00 | 0.02 | 0.02 | 93 | 1021.1 |
| 20260506171905 | 51 | 225 | 5.2 | 5.2 | 0.00 | 0.02 | 0.02 | 94 | 1021.0 |
| 20260506171402 | 51 | 167 | 0.0 | 1.7 | 0.00 | 0.02 | 0.02 | 95 | 1021.0 |
| 20260506170854 | 51 | 230 | 1.7 | 5.2 | 0.00 | 0.02 | 0.02 | 95 | 1020.9 |
| 20260506170349 | 51 | 221 | 4.3 | 5.2 | 0.00 | 0.02 | 0.02 | 95 | 1020.9 |
| 20260506165843 | 51 | 218 | 1.7 | 1.7 | 0.00 | 0.02 | 0.02 | 96 | 1020.7 |
| 20260506165341 | 51 | 13 | 1.7 | 1.7 | 0.00 | 0.02 | 0.02 | 96 | 1020.7 |
| 20260506164837 | 51 | 157 | 0.0 | 2.6 | 0.00 | 0.02 | 0.02 | 96 | 1020.6 |
| 20260506164334 | 51 | 96 | 0.9 | 1.7 | 0.00 | 0.02 | 0.02 | 97 | 1020.5 |
| 20260506163832 | 50 | 221 | 2.6 | 5.2 | 0.00 | 0.02 | 0.02 | 97 | 1020.4 |
| 20260506163326 | 50 | 246 | 0.9 | 3.5 | 0.00 | 0.02 | 0.02 | 98 | 1020.7 |
| 20260506162821 | 50 | 185 | 0.0 | 2.6 | 0.00 | 0.02 | 0.02 | 98 | 1020.7 |
| 20260506162319 | 50 | 192 | 1.7 | 2.6 | 0.00 | 0.02 | 0.02 | 99 | 1020.9 |
| 20260506161811 | 50 | 72 | 0.0 | 2.6 | 0.00 | 0.02 | 0.02 | 99 | 1020.7 |
| 20260506161308 | 50 | 315 | 0.0 | 1.7 | 0.02 | 0.02 | 0.02 | 99 | 1020.7 |
| 20260506160805 | 49 | 275 | 0.9 | 3.5 | 0.02 | 0.02 | 0.02 | 99 | 1020.8 |
| 20260506160301 | 49 | 201 | 2.6 | 5.2 | 0.00 | 0.01 | 0.01 | 99 | 1020.6 |
| 20260506155801 | 49 | 259 | 1.7 | 9.6 | 0.00 | 0.01 | 0.01 | 99 | 1020.7 |
| 20260506155257 | 50 | 247 | 1.7 | 2.6 | 0.00 | 0.01 | 0.01 | 99 | 1021.0 |
| 20260506153404 | 50 | 66 | 0.0 | 1.7 | 0.02 | 0.01 | 0.01 | 99 | 1021.0 |
| 20260506152901 | 50 | 97 | 1.7 | 1.7 | 0.02 | 0.01 | 0.01 | 99 | 1020.9 |
| 20260506152358 | 50 | 112 | 0.0 | 1.7 | 0.00 | 0.01 | 0.01 | 99 | 1020.8 |
| 20260506151857 | 50 | 58 | 1.7 | 2.6 | 0.00 | 0.01 | 0.01 | 99 | 1020.6 |
| 20260506151353 | 50 | 69 | 0.0 | 1.7 | 0.00 | 0.01 | 0.01 | 99 | 1020.7 |
| 20260506150851 | 50 | 122 | 0.9 | 1.7 | 0.00 | 0.01 | 0.01 | 99 | 1020.5 |
| 20260506150347 | 50 | 89 | 0.0 | 1.7 | 0.00 | 0.01 | 0.01 | 99 | 1020.3 |
| 20260506145844 | 50 | 80 | 0.9 | 1.7 | 0.00 | 0.01 | 0.01 | 99 | 1020.2 |
| 20260506145340 | 50 | 49 | 0.0 | 1.7 | 0.00 | 0.01 | 0.01 | 99 | 1020.2 |
| 20260506144838 | 50 | 77 | 0.9 | 1.7 | 0.00 | 0.01 | 0.01 | 99 | 1020.2 |
| 20260506144334 | 50 | 86 | 2.6 | 2.6 | 0.00 | 0.01 | 0.01 | 99 | 1020.1 |
| 20260506143833 | 50 | 102 | 1.7 | 1.7 | 0.00 | 0.01 | 0.01 | 99 | 1020.0 |
| 20260506143329 | 49 | 52 | 1.7 | 2.6 | 0.00 | 0.01 | 0.01 | 99 | 1020.0 |
| 20260506142828 | 49 | 92 | 1.7 | 2.6 | 0.00 | 0.01 | 0.01 | 99 | 1020.0 |
| 20260506142325 | 50 | 92 | 0.9 | 1.7 | 0.00 | 0.01 | 0.01 | 99 | 1020.0 |
| 20260506141824 | 49 | 102 | 1.7 | 2.6 | 0.00 | 0.01 | 0.01 | 99 | 1020.4 |
| 20260506141321 | 49 | 131 | 1.7 | 2.6 | 0.00 | 0.01 | 0.01 | 99 | 1020.2 |
| 20260506140819 | 49 | 39 | 0.0 | 1.7 | 0.00 | 0.01 | 0.01 | 99 | 1020.2 |
| 20260506140316 | 50 | 121 | 0.0 | 1.7 | 0.00 | 0.01 | 0.01 | 99 | 1019.9 |
| 20260506135813 | 49 | 117 | 0.9 | 1.7 | 0.00 | 0.01 | 0.01 | 99 | 1019.9 |
| 20260506135309 | 49 | 94 | 1.7 | 1.7 | 0.00 | 0.01 | 0.01 | 99 | 1020.0 |
| 20260506134806 | 50 | 40 | 0.9 | 1.7 | 0.00 | 0.01 | 0.01 | 99 | 1019.9 |
| 20260506134302 | 50 | 86 | 1.7 | 2.6 | 0.00 | 0.01 | 0.01 | 99 | 1019.8 |
| 20260506133759 | 50 | 48 | 2.6 | 2.6 | 0.00 | 0.01 | 0.01 | 99 | 1019.8 |
| 20260506133256 | 50 | 78 | 0.0 | 1.7 | 0.00 | 0.01 | 0.01 | 99 | 1019.7 |
| 20260506132753 | 50 | 74 | 0.9 | 1.7 | 0.00 | 0.01 | 0.01 | 99 | 1019.6 |
| 20260506132250 | 49 | 91 | 1.7 | 1.7 | 0.00 | 0.01 | 0.01 | 99 | 1019.7 |
| 20260506131748 | 50 | 45 | 1.7 | 1.7 | 0.00 | 0.01 | 0.01 | 99 | 1019.8 |
| 20260506131243 | 50 | 110 | 0.0 | 2.6 | 0.00 | 0.01 | 0.01 | 99 | 1019.5 |
| 20260506130740 | 50 | 47 | 0.0 | 1.7 | 0.00 | 0.01 | 0.01 | 99 | 1019.4 |
| 20260506130237 | 50 | 79 | 1.7 | 1.7 | 0.02 | 0.01 | 0.01 | 99 | 1019.6 |
| 20260506125736 | 50 | 66 | 0.9 | 2.6 | 0.02 | 0.01 | 0.01 | 99 | 1019.5 |
| 20260506125233 | 50 | 104 | 0.0 | 0.9 | 0.00 | 0.00 | 0.00 | 99 | 1019.9 |
| 20260506124731 | 50 | 71 | 1.7 | 2.6 | 0.00 | 0.00 | 0.00 | 99 | 1019.5 |
| 20260506124228 | 50 | 86 | 1.7 | 2.6 | 0.00 | 0.00 | 0.00 | 99 | 1019.6 |
| 20260506123726 | 50 | 102 | 2.6 | 2.6 | 0.00 | 0.00 | 0.00 | 99 | 1019.5 |
| 20260506123224 | 50 | 48 | 1.7 | 1.7 | 0.00 | 0.00 | 0.00 | 99 | 1019.8 |
| 20260506122721 | 50 | 72 | 2.6 | 2.6 | 0.00 | 0.00 | 0.00 | 99 | 1019.7 |
| 20260506122218 | 50 | 83 | 1.7 | 1.7 | 0.00 | 0.00 | 0.00 | 99 | 1019.9 |
| 20260506121716 | 50 | 109 | 1.7 | 1.7 | 0.00 | 0.00 | 0.00 | 99 | 1019.5 |
| 20260506121213 | 50 | 89 | 1.7 | 1.7 | 0.02 | 0.00 | 0.00 | 99 | 1019.8 |
| 20260506120710 | 50 | 88 | 1.7 | 3.5 | 0.02 | 0.00 | 0.00 | 99 | 1019.8 |
| 20260506120208 | 50 | 120 | 1.7 | 1.7 | 0.00 | 0.00 | 0.00 | 99 | 1019.8 |
| 20260506115706 | 50 | 34 | 0.9 | 1.7 | 0.00 | 0.00 | 0.00 | 99 | 1019.6 |
| 20260506115204 | 50 | 109 | 1.7 | 2.6 | 0.00 | 0.00 | 0.00 | 99 | 1019.5 |
| 20260506114701 | 50 | 52 | 0.9 | 0.9 | 0.00 | 0.00 | 0.00 | 99 | 1019.6 |
| 20260506114158 | 50 | 97 | 0.0 | 1.7 | 0.00 | 0.00 | 0.00 | 99 | 1019.3 |
| 20260506113657 | 50 | 104 | 1.7 | 2.6 | 0.00 | 0.00 | 0.00 | 99 | 1019.3 |
| 20260506113154 | 50 | 92 | 0.9 | 1.7 | 0.00 | 0.00 | 0.00 | 98 | 1019.4 |
| 20260506112650 | 50 | 63 | 1.7 | 1.7 | 0.00 | 0.00 | 0.00 | 98 | 1019.0 |
| 20260506112148 | 50 | 46 | 1.7 | 1.7 | 0.00 | 0.00 | 0.00 | 98 | 1019.3 |
| 20260506111645 | 50 | 13 | 0.0 | 1.7 | 0.00 | 0.00 | 0.00 | 98 | 1019.3 |
| 20260506111143 | 50 | 108 | 1.7 | 1.7 | 0.00 | 0.00 | 0.00 | 98 | 1019.0 |
| 20260506110640 | 50 | 101 | 2.6 | 2.6 | 0.00 | 0.00 | 0.00 | 98 | 1019.3 |
| 20260506110137 | 50 | 84 | 0.9 | 1.7 | 0.00 | 0.00 | 0.00 | 98 | 1019.1 |
| 20260506105633 | 50 | 115 | 2.6 | 2.6 | 0.00 | 0.00 | 0.00 | 98 | 1019.1 |
| 20260506105130 | 50 | 130 | 0.0 | 0.9 | 0.00 | 0.00 | 0.00 | 98 | 1019.1 |
| 20260506104629 | 50 | 99 | 0.9 | 0.9 | 0.00 | 0.00 | 0.00 | 98 | 1018.8 |
| 20260506104126 | 50 | 135 | 0.0 | 0.9 | 0.00 | 0.00 | 0.00 | 98 | 1018.7 |
| 20260506103623 | 50 | 60 | 0.0 | 0.9 | 0.00 | 0.00 | 0.00 | 98 | 1018.8 |
| 20260506103120 | 50 | 80 | 0.0 | 1.7 | 0.00 | 0.00 | 0.00 | 98 | 1018.6 |
| 20260506102618 | 50 | 82 | 0.9 | 1.7 | 0.00 | 0.00 | 0.00 | 98 | 1018.7 |
| 20260506102115 | 50 | 78 | 0.0 | 0.9 | 0.00 | 0.00 | 0.00 | 98 | 1018.8 |
| 20260506101612 | 50 | 87 | 1.7 | 1.7 | 0.00 | 0.00 | 0.00 | 98 | 1018.4 |
| 20260506101109 | 50 | 70 | 0.9 | 1.7 | 0.00 | 0.00 | 0.00 | 98 | 1018.6 |
| 20260506100607 | 50 | 117 | 1.7 | 1.7 | 0.00 | 0.00 | 0.00 | 98 | 1018.4 |
| 20260506100105 | 50 | 114 | 1.7 | 1.7 | 0.00 | 0.00 | 0.00 | 98 | 1018.5 |
| 20260506095604 | 49 | 89 | 0.0 | 1.7 | 0.00 | 0.00 | 0.00 | 98 | 1018.4 |
| 20260506095100 | 49 | 115 | 0.9 | 1.7 | 0.00 | 0.00 | 0.00 | 98 | 1018.7 |
| 20260506094557 | 49 | 107 | 1.7 | 1.7 | 0.00 | 0.00 | 0.00 | 98 | 1018.5 |
| 20260506094055 | 49 | 109 | 1.7 | 1.7 | 0.00 | 0.00 | 0.00 | 98 | 1018.4 |
| 20260506093553 | 49 | 113 | 1.7 | 1.7 | 0.00 | 0.00 | 0.00 | 98 | 1018.5 |
| 20260506093051 | 49 | 113 | 1.7 | 1.7 | 0.00 | 0.00 | 0.00 | 98 | 1018.6 |
| 20260506092548 | 49 | 123 | 1.7 | 1.7 | 0.00 | 0.00 | 0.00 | 98 | 1018.5 |
| 20260506092045 | 49 | 147 | 0.9 | 1.7 | 0.00 | 0.00 | 0.00 | 98 | 1018.5 |
| 20260506091543 | 49 | 121 | 0.9 | 1.7 | 0.00 | 0.00 | 0.00 | 98 | 1018.5 |
| 20260506091040 | 49 | 87 | 0.0 | 1.7 | 0.00 | 0.00 | 0.00 | 98 | 1018.4 |
| 20260506090538 | 49 | 131 | 0.9 | 0.9 | 0.00 | 0.00 | 0.00 | 98 | 1018.4 |
| 20260506090034 | 49 | 107 | 0.9 | 1.7 | 0.00 | 0.00 | 0.00 | 98 | 1018.5 |
| 20260506085531 | 49 | 94 | 0.9 | 1.7 | 0.00 | 0.00 | 0.00 | 98 | 1018.6 |
| 20260506085027 | 49 | 59 | 0.9 | 1.7 | 0.00 | 0.00 | 0.00 | 98 | 1018.5 |
| 20260506084525 | 49 | 65 | 0.9 | 1.7 | 0.00 | 0.00 | 0.00 | 98 | 1018.8 |
| 20260506084020 | 48 | 92 | 1.7 | 1.7 | 0.00 | 0.00 | 0.00 | 99 | 1018.6 |
| 20260506083518 | 48 | 104 | 1.7 | 1.7 | 0.00 | 0.00 | 0.00 | 99 | 1018.5 |
| 20260506083015 | 48 | 89 | 1.7 | 1.7 | 0.00 | 0.00 | 0.00 | 99 | 1018.2 |
| 20260506082512 | 48 | 113 | 1.7 | 1.7 | 0.00 | 0.00 | 0.00 | 99 | 1018.3 |
| 20260506082007 | 48 | 97 | 1.7 | 1.7 | 0.00 | 0.00 | 0.00 | 99 | 1018.4 |
| 20260506081506 | 48 | 138 | 0.9 | 1.7 | 0.00 | 0.00 | 0.00 | 99 | 1018.3 |
| 20260506081003 | 48 | 118 | 0.9 | 1.7 | 0.00 | 0.00 | 0.00 | 99 | 1018.3 |
| 20260506080500 | 47 | 128 | 0.9 | 1.7 | 0.00 | 0.00 | 0.00 | 99 | 1018.3 |
| 20260506073444 | 46 | 151 | 0.9 | 1.7 | 0.00 | 0.00 | 0.00 | 99 | 1018.0 |
| 20260506072941 | 46 | 143 | 2.6 | 2.6 | 0.00 | 0.00 | 0.00 | 99 | 1018.0 |
| 20260506072438 | 46 | 154 | 1.7 | 2.6 | 0.00 | 0.00 | 0.00 | 99 | 1018.1 |
| 20260506071936 | 46 | 108 | 1.7 | 1.7 | 0.00 | 0.00 | 0.00 | 99 | 1017.8 |
| 20260506071433 | 46 | 142 | 1.7 | 1.7 | 0.00 | 0.00 | 0.00 | 99 | 1017.8 |
| 20260506070930 | 46 | 131 | 1.7 | 1.7 | 0.00 | 0.00 | 0.00 | 99 | 1017.8 |
| 20260506070427 | 45 | 181 | 0.9 | 0.9 | 0.00 | 0.00 | 0.00 | 99 | 1017.8 |
| 20260506062405 | 45 | 144 | 1.7 | 1.7 | 0.00 | 0.00 | 0.00 | 99 | 1017.6 |
| 20260506061900 | 46 | 145 | 0.0 | 1.7 | 0.00 | 0.00 | 0.00 | 98 | 1017.6 |
| 20260506061357 | 46 | 163 | 1.7 | 2.6 | 0.00 | 0.00 | 0.00 | 98 | 1017.5 |
| 20260506060855 | 46 | 136 | 1.7 | 1.7 | 0.00 | 0.00 | 0.00 | 98 | 1017.6 |
| 20260506060353 | 46 | 147 | 1.7 | 1.7 | 0.00 | 0.00 | 0.00 | 98 | 1017.6 |
| 20260506051325 | 48 | 151 | 1.7 | 2.6 | 0.00 | 0.00 | 0.00 | 97 | 1017.3 |
| 20260506050823 | 48 | 159 | 0.0 | 2.6 | 0.00 | 0.00 | 0.00 | 96 | 1017.6 |
| 20260506050320 | 48 | 118 | 0.9 | 1.7 | 0.00 | 0.00 | 0.00 | 96 | 1017.5 |
| 20260506044810 | 48 | 133 | 0.9 | 1.7 | 0.00 | 0.00 | 0.00 | 95 | 1017.4 |
| 20260506044308 | 49 | 155 | 1.7 | 1.7 | 0.00 | 0.00 | 0.00 | 95 | 1017.5 |
| 20260506043804 | 49 | 102 | 0.9 | 0.9 | 0.00 | 0.00 | 0.00 | 95 | 1017.2 |
| 20260506043302 | 50 | 120 | 1.7 | 1.7 | 0.00 | 0.00 | 0.00 | 95 | 1017.3 |
| 20260506042801 | 50 | 128 | 1.7 | 1.7 | 0.00 | 0.00 | 0.00 | 95 | 1017.0 |
| 20260506042259 | 50 | 115 | 0.9 | 1.7 | 0.00 | 0.00 | 0.00 | 94 | 1017.1 |
| 20260506041757 | 50 | 101 | 1.7 | 2.6 | 0.00 | 0.00 | 0.00 | 94 | 1017.0 |
| 20260506041254 | 50 | 83 | 0.9 | 1.7 | 0.00 | 0.00 | 0.00 | 94 | 1016.9 |
| 20260506040751 | 51 | 117 | 0.0 | 1.7 | 0.00 | 0.00 | 0.00 | 93 | 1016.8 |
| 20260506040248 | 51 | 58 | 0.9 | 0.9 | 0.00 | 0.00 | 0.00 | 93 | 1016.8 |
| 20260506035745 | 51 | 89 | 0.0 | 1.7 | 0.00 | 0.00 | 0.00 | 92 | 1016.6 |
| 20260506035242 | 51 | 54 | 1.7 | 1.7 | 0.00 | 0.00 | 0.00 | 91 | 1016.5 |
| 20260506034739 | 52 | 94 | 1.7 | 1.7 | 0.00 | 0.00 | 0.00 | 91 | 1016.4 |
| 20260506034236 | 52 | 89 | 0.9 | 1.7 | 0.00 | 0.00 | 0.00 | 91 | 1016.4 |
| 20260506033733 | 52 | 103 | 1.7 | 1.7 | 0.00 | 0.00 | 0.00 | 90 | 1016.4 |
| 20260506033230 | 53 | 66 | 0.0 | 1.7 | 0.00 | 0.00 | 0.00 | 90 | 1016.4 |
| 20260506032727 | 53 | 87 | 0.9 | 1.7 | 0.00 | 0.00 | 0.00 | 89 | 1016.2 |
| 20260506032224 | 53 | 61 | 0.0 | 1.7 | 0.00 | 0.00 | 0.00 | 88 | 1016.3 |
| 20260506031720 | 54 | 56 | 0.0 | 1.7 | 0.00 | 0.00 | 0.00 | 87 | 1016.2 |
| 20260506031218 | 54 | 48 | 0.9 | 1.7 | 0.00 | 0.00 | 0.00 | 86 | 1016.3 |
| 20260506030716 | 55 | 72 | 1.7 | 1.7 | 0.00 | 0.00 | 0.00 | 85 | 1016.4 |
| 20260506030213 | 56 | 63 | 0.9 | 1.7 | 0.00 | 0.00 | 0.00 | 84 | 1016.2 |
| 20260506025710 | 57 | 25 | 1.7 | 1.7 | 0.00 | 0.00 | 0.00 | 82 | 1016.2 |
| 20260506025206 | 58 | 32 | 0.0 | 0.9 | 0.00 | 0.00 | 0.00 | 80 | 1016.1 |
| 20260506024703 | 60 | 23 | 1.7 | 1.7 | 0.00 | 0.00 | 0.00 | 77 | 1016.4 |
| 20260506024159 | 59 | 51 | 0.0 | 1.7 | 0.00 | 0.00 | 0.00 | 79 | 1016.3 |
| 20260506023656 | 58 | 56 | 0.9 | 1.7 | 0.00 | 0.00 | 0.00 | 80 | 1016.5 |
| 20260506023153 | 59 | 59 | 0.9 | 1.7 | 0.00 | 0.00 | 0.00 | 80 | 1016.4 |
| 20260506022644 | 59 | 40 | 0.9 | 1.7 | 0.00 | 0.00 | 0.00 | 78 | 1016.1 |
| 20260506022141 | 59 | 11 | 0.0 | 1.7 | 0.00 | 0.00 | 0.00 | 79 | 1016.3 |
| 20260506021639 | 59 | 57 | 1.7 | 2.6 | 0.00 | 0.00 | 0.00 | 78 | 1016.2 |
| 20260506021136 | 59 | 92 | 1.7 | 2.6 | 0.00 | 0.00 | 0.00 | 77 | 1016.3 |
| 20260506020633 | 61 | 22 | 0.9 | 1.7 | 0.00 | 0.00 | 0.00 | 76 | 1016.3 |
| 20260506020131 | 60 | 45 | 1.7 | 2.6 | 0.00 | 0.00 | 0.00 | 77 | 1016.1 |
| 20260506015628 | 60 | 45 | 2.6 | 2.6 | 0.00 | 0.00 | 0.00 | 77 | 1016.1 |
| 20260506015125 | 61 | 29 | 0.9 | 1.7 | 0.00 | 0.00 | 0.00 | 76 | 1016.1 |
| 20260506014623 | 61 | 21 | 1.7 | 2.6 | 0.00 | 0.00 | 0.00 | 74 | 1016.1 |
| 20260506014118 | 61 | 66 | 0.0 | 1.7 | 0.00 | 0.00 | 0.00 | 75 | 1016.1 |
| 20260506013617 | 62 | 60 | 1.7 | 1.7 | 0.00 | 0.00 | 0.00 | 74 | 1016.3 |
| 20260506013113 | 61 | 32 | 1.7 | 2.6 | 0.00 | 0.00 | 0.00 | 74 | 1016.4 |
| 20260506012609 | 61 | 219 | 0.9 | 4.3 | 0.00 | 0.00 | 0.00 | 75 | 1016.2 |
| 20260506012106 | 61 | 57 | 1.7 | 2.6 | 0.00 | 0.00 | 0.00 | 75 | 1016.3 |
| 20260506011604 | 61 | 59 | 1.7 | 2.6 | 0.00 | 0.00 | 0.00 | 75 | 1016.3 |
| 20260506011059 | 61 | 46 | 1.7 | 3.5 | 0.00 | 0.00 | 0.00 | 76 | 1016.3 |
| 20260506010554 | 62 | 329 | 0.9 | 1.7 | 0.00 | 0.00 | 0.00 | 77 | 1016.2 |
| 20260506010050 | 61 | 247 | 1.7 | 4.3 | 0.00 | 0.00 | 0.00 | 75 | 1016.2 |
| 20260506005547 | 64 | 210 | 1.7 | 2.6 | 0.00 | 0.00 | 0.00 | 71 | 1016.5 |
| 20260506005043 | 63 | 51 | 1.7 | 1.7 | 0.00 | 0.00 | 0.00 | 72 | 1016.4 |
| 20260506004541 | 61 | 223 | 2.6 | 6.1 | 0.00 | 0.00 | 0.00 | 74 | 1016.4 |
| 20260506004037 | 61 | 10 | 1.7 | 2.6 | 0.00 | 0.00 | 0.00 | 75 | 1016.2 |
| 20260506003534 | 60 | 155 | 2.6 | 7.8 | 0.00 | 0.00 | 0.00 | 76 | 1016.3 |
| 20260506003030 | 60 | 55 | 5.2 | 5.2 | 0.00 | 0.00 | 0.00 | 76 | 1016.3 |
| 20260506002526 | 61 | 39 | 3.5 | 4.3 | 0.00 | 0.00 | 0.00 | 76 | 1016.3 |
| 20260506002022 | 61 | 27 | 1.7 | 8.7 | 0.00 | 0.00 | 0.00 | 76 | 1016.3 |
| 20260506001518 | 63 | 49 | 0.9 | 2.6 | 0.00 | 0.00 | 0.00 | 76 | 1016.5 |
| 20260506001016 | 62 | 68 | 1.7 | 5.2 | 0.00 | 0.00 | 0.00 | 74 | 1016.5 |
| 20260506000514 | 62 | 275 | 1.7 | 4.3 | 0.00 | 0.00 | 0.00 | 73 | 1016.5 |
| 20260506000011 | 62 | 255 | 2.6 | 4.3 | 0.00 | 0.00 | 0.00 | 75 | 1016.4 |
| 20260505235509 | 61 | 208 | 4.3 | 4.3 | 0.00 | 0.00 | 0.00 | 74 | 1016.6 |
| 20260505235005 | 61 | 45 | 3.5 | 9.6 | 0.00 | 0.00 | 0.00 | 77 | 1016.5 |
| 20260505234502 | 62 | 45 | 2.6 | 2.6 | 0.00 | 0.00 | 0.00 | 73 | 1016.6 |
| 20260505233959 | 63 | 37 | 1.7 | 2.6 | 0.00 | 0.00 | 0.00 | 75 | 1016.7 |
| 20260505233456 | 62 | 130 | 3.5 | 5.2 | 0.00 | 0.00 | 0.00 | 73 | 1016.7 |
| 20260505232953 | 62 | 134 | 1.7 | 3.5 | 0.00 | 0.00 | 0.00 | 74 | 1016.8 |
| 20260505232451 | 62 | 86 | 2.6 | 3.5 | 0.00 | 0.00 | 0.00 | 76 | 1016.9 |
| 20260505231948 | 61 | 205 | 2.6 | 10.4 | 0.00 | 0.00 | 0.00 | 77 | 1016.8 |
| 20260505231446 | 62 | 79 | 3.5 | 3.5 | 0.00 | 0.00 | 0.00 | 76 | 1016.8 |
| 20260505230944 | 62 | 21 | 2.6 | 9.6 | 0.00 | 0.00 | 0.00 | 78 | 1017.0 |
| 20260505230441 | 63 | 259 | 1.7 | 3.5 | 0.00 | 0.00 | 0.00 | 77 | 1016.8 |
| 20260505225937 | 61 | 307 | 3.5 | 7.8 | 0.00 | 0.00 | 0.00 | 81 | 1016.9 |
| 20260505225435 | 62 | 53 | 3.5 | 4.3 | 0.00 | 0.00 | 0.00 | 76 | 1017.1 |
| 20260505224930 | 61 | 66 | 2.6 | 5.2 | 0.00 | 0.00 | 0.00 | 79 | 1017.0 |
| 20260505224427 | 60 | 227 | 7.8 | 12.2 | 0.00 | 0.00 | 0.00 | 78 | 1017.2 |
| 20260505223925 | 62 | 234 | 6.1 | 7.0 | 0.00 | 0.00 | 0.00 | 79 | 1017.1 |
| 20260505223421 | 64 | 354 | 1.7 | 1.7 | 0.00 | 0.00 | 0.00 | 75 | 1017.0 |
| 20260505222918 | 62 | 245 | 3.5 | 5.2 | 0.00 | 0.00 | 0.00 | 77 | 1017.1 |
| 20260505222414 | 62 | 41 | 1.7 | 3.5 | 0.00 | 0.00 | 0.00 | 77 | 1017.2 |
| 20260505221910 | 63 | 211 | 2.6 | 3.5 | 0.00 | 0.00 | 0.00 | 76 | 1017.1 |
| 20260505221408 | 62 | 319 | 1.7 | 6.1 | 0.00 | 0.00 | 0.00 | 80 | 1017.1 |
| 20260505220905 | 61 | 179 | 2.6 | 4.3 | 0.00 | 0.00 | 0.00 | 78 | 1017.1 |
| 20260505220402 | 61 | 255 | 2.6 | 4.3 | 0.00 | 0.00 | 0.00 | 81 | 1017.2 |
| 20260505215859 | 62 | 124 | 1.7 | 7.0 | 0.00 | 0.00 | 0.00 | 79 | 1017.2 |
| 20260505215357 | 63 | 12 | 2.6 | 6.1 | 0.00 | 0.00 | 0.00 | 79 | 1017.3 |
| 20260505214855 | 62 | 106 | 2.6 | 3.5 | 0.00 | 0.00 | 0.00 | 80 | 1017.4 |
| 20260505214352 | 61 | 356 | 1.7 | 7.8 | 0.00 | 0.00 | 0.00 | 80 | 1017.2 |
| 20260505213849 | 61 | 65 | 0.0 | 3.5 | 0.00 | 0.00 | 0.00 | 78 | 1017.3 |
| 20260505213347 | 62 | 64 | 1.7 | 3.5 | 0.00 | 0.00 | 0.00 | 79 | 1017.6 |
| 20260505212843 | 62 | 256 | 4.3 | 5.2 | 0.00 | 0.00 | 0.00 | 80 | 1017.3 |
| 20260505212340 | 64 | 228 | 3.5 | 3.5 | 0.00 | 0.00 | 0.00 | 78 | 1017.4 |
| 20260505211836 | 60 | 153 | 5.2 | 7.8 | 0.00 | 0.00 | 0.00 | 81 | 1017.6 |
| 20260505211334 | 60 | 96 | 2.6 | 2.6 | 0.00 | 0.00 | 0.00 | 83 | 1017.4 |
| 20260505210830 | 60 | 18 | 2.6 | 3.5 | 0.00 | 0.00 | 0.00 | 82 | 1017.5 |
| 20260505210327 | 60 | 334 | 1.7 | 4.3 | 0.00 | 0.00 | 0.00 | 84 | 1017.5 |
| 20260505205824 | 59 | 85 | 2.6 | 3.5 | 0.00 | 0.00 | 0.00 | 85 | 1017.6 |
| 20260505205322 | 59 | 250 | 4.3 | 5.2 | 0.00 | 0.00 | 0.00 | 87 | 1017.5 |
| 20260505204819 | 57 | 165 | 1.7 | 3.5 | 0.00 | 0.00 | 0.00 | 87 | 1017.5 |
| 20260505204317 | 59 | 317 | 1.7 | 1.7 | 0.00 | 0.00 | 0.00 | 87 | 1017.4 |
| 20260505203814 | 58 | 141 | 3.5 | 4.3 | 0.00 | 0.00 | 0.00 | 87 | 1017.5 |
| 20260505203310 | 57 | 113 | 3.5 | 4.3 | 0.00 | 0.00 | 0.00 | 88 | 1017.6 |
| 20260505202807 | 56 | 105 | 1.7 | 2.6 | 0.00 | 0.00 | 0.00 | 91 | 1017.7 |
| 20260505202306 | 56 | 243 | 5.2 | 6.1 | 0.00 | 0.00 | 0.00 | 89 | 1017.8 |
| 20260505201759 | 57 | 264 | 1.7 | 2.6 | 0.00 | 0.00 | 0.00 | 89 | 1017.6 |
| 20260505201251 | 56 | 260 | 0.0 | 2.6 | 0.00 | 0.00 | 0.00 | 91 | 1017.7 |
| 20260505200749 | 56 | 195 | 1.7 | 4.3 | 0.00 | 0.00 | 0.00 | 91 | 1017.7 |
| 20260505200246 | 56 | 268 | 4.3 | 5.2 | 0.00 | 0.00 | 0.00 | 91 | 1017.6 |
| 20260505195741 | 56 | 142 | 1.7 | 2.6 | 0.00 | 0.00 | 0.00 | 90 | 1017.6 |
| 20260505195239 | 56 | 110 | 3.5 | 4.3 | 0.00 | 0.00 | 0.00 | 91 | 1017.7 |
| 20260505194736 | 56 | 52 | 2.6 | 2.6 | 0.00 | 0.00 | 0.00 | 91 | 1017.7 |
| 20260505194233 | 56 | 133 | 1.7 | 2.6 | 0.00 | 0.00 | 0.00 | 92 | 1017.5 |
| 20260505193728 | 56 | 223 | 0.9 | 1.7 | 0.00 | 0.00 | 0.00 | 93 | 1017.5 |
| 20260505193226 | 55 | 82 | 0.9 | 3.5 | 0.00 | 0.00 | 0.00 | 94 | 1017.4 |
| 20260505192724 | 54 | 223 | 2.6 | 3.5 | 0.00 | 0.00 | 0.00 | 93 | 1017.5 |
| 20260505192221 | 54 | 108 | 2.6 | 2.6 | 0.00 | 0.00 | 0.00 | 94 | 1017.7 |
| 20260505191719 | 55 | 230 | 0.0 | 1.7 | 0.00 | 0.00 | 0.00 | 93 | 1017.7 |
| 20260505191218 | 54 | 12 | 1.7 | 1.7 | 0.00 | 0.00 | 0.00 | 93 | 1017.6 |
| 20260505190713 | 55 | 47 | 1.7 | 2.6 | 0.00 | 0.00 | 0.00 | 94 | 1017.6 |
| 20260505190208 | 54 | 138 | 0.9 | 1.7 | 0.00 | 0.00 | 0.00 | 95 | 1017.6 |
| 20260505185705 | 54 | 72 | 1.7 | 2.6 | 0.00 | 0.00 | 0.00 | 96 | 1017.7 |
| 20260505185201 | 54 | 194 | 1.7 | 1.7 | 0.00 | 0.00 | 0.00 | 96 | 1017.6 |
| 20260505184657 | 53 | 175 | 0.9 | 1.7 | 0.00 | 0.00 | 0.00 | 96 | 1017.7 |
| 20260505184155 | 53 | 175 | 0.9 | 2.6 | 0.00 | 0.00 | 0.00 | 96 | 1017.6 |
| 20260505183651 | 53 | 105 | 1.7 | 1.7 | 0.00 | 0.00 | 0.00 | 96 | 1017.6 |
| 20260505183149 | 53 | 76 | 1.7 | 1.7 | 0.00 | 0.00 | 0.00 | 97 | 1017.7 |
| 20260505182644 | 54 | 196 | 0.9 | 1.7 | 0.00 | 0.00 | 0.00 | 96 | 1017.5 |
| 20260505182142 | 53 | 61 | 1.7 | 2.6 | 0.00 | 0.00 | 0.00 | 97 | 1017.7 |
| 20260505181638 | 53 | 41 | 0.9 | 3.5 | 0.00 | 0.00 | 0.00 | 97 | 1017.7 |
| 20260505181135 | 53 | 186 | 0.0 | 1.7 | 0.00 | 0.00 | 0.00 | 96 | 1017.5 |
| 20260505180626 | 53 | 59 | 1.7 | 1.7 | 0.00 | 0.00 | 0.00 | 97 | 1017.5 |